Weather in Yeletskaya Lozovka

Russia / Lipetsk Oblast     52°15′09″N   39°10′14″E
temp.,
°C
wind,
m/s
gust,
m/s
humid.,
%
clouds,
%
prec.,
mm/h
press.,
hPa
HPBL,
m
13 june, sun
sun1300:00+15wsw228965 0.0 100713
03:00+15sw119092 0.0 100711
06:00+16w239397 0.0 1008115
09:00+20sw33786 0.2 1008658
12:00+22sw456428 0.4 10081474
15:00+24sw45569 0.5 10091818
18:00+23sw246755 0.0 10091083
21:00+18wsw3383100 0.0 101046
14 june, mon
mon1400:00+16sw22895 0.0 101122
03:00+15ssw119210 0.0 101210
06:00+17ssw118656 0.0 101361
09:00+22se01682 0.0 1014561
12:00+25nne22555 0.0 10141502
15:00+25nne235960 0.7 10141080
18:00+23ne226832 0.8 1013244
21:00+18e22896 1.3 101413
15 june, tue
tue1500:00+17ne119075 0.0 101411
03:00+16ne2293100 0.0 101424
06:00+17ne249379 0.1 1014132
09:00+21e3479100 0.1 1013658
12:00+24ne4569100 1.0 10131180
15:00+23ne3473100 1.9 1011942
18:00+20ne3587100 1.8 1010122
21:00+18nne229052 2.1 101036
16 june, wed
wed1600:00+16nne369419 0.0 1009120
03:00+16n369769 0.0 1008145
06:00+17nne399598 0.1 1008312
09:00+20nne488667 0.1 1008490
12:00+25ne566472 0.0 10081465
15:00+25ne577111 1.4 10081288
18:00+22nne588238 4.4 1010348
21:00+19nne5129211 5.1 1012321
17 june, thu
thu1700:00+18nne5149323 0.0 1013488
03:00+16ne615931 0.0 1015508
06:00+15ne614810 0.0 1017467
09:00+19ne610633 0.0 1018693
12:00+22ne78550 0.0 10191199
15:00+22ne67550 0.0 10201417
18:00+21ne58650 0.0 1020950
21:00+16nne412750 0.0 1022353